Flag for Monaco Weather past 2 weeks in Monaco, Monaco

Now
73 °F

Scattered clouds.


Feels Like: 76 °F
Forecast: 60 / 73 °F
Wind: 3 mph from East

Location: Nice Airport

Current Time: Oct 2, 2014 at 11:29:35 AM

Latest Report: Oct 2, 2014 at 11:00 AM


Visibility: N/A

Pressure: 30.21 "Hg

Humidity: 69%

Dew point: 63 °F

Location of MonacoLocation

Historic Weather in Monaco — Graph

°F

Monaco temperature yesterday

Maximum temperature yesterday: 73 °F (at 11:30 AM)
Minimum temperature yesterday: 64 °F (at 6:30 AM)
Average temperature yesterday: 70 °F

Past Weeks' High & Low Weather Summary

 TemperatureHumidityPressure
High79 °F (Sep 19, 10:06 AM)94% (Sep 20, 9:00 PM)30.33 "Hg (Sep 20, 9:00 PM)
Low61 °F (Sep 25, 4:30 AM)34% (Sep 23, 12:00 PM)29.77 "Hg (Sep 22, 5:00 PM)
Average71 °F67%30.07 "Hg
* Reported Sep 17 10:00 AM — Oct 2 10:30 AM, Monaco, Weather by CustomWeather, © 2014

Note: Actual official high and low records may vary slightly from our data, if they occured in-between our weather recording intervals... More about our weather records

Advertising

Monaco weather history for previous 24 hours

 ConditionsComfort  
Time TempWeatherWind HumidityBarometerVisibility
10:30 AM
Oct 2
73 °FScattered clouds.2 mph69%30.21 "HgN/A
10:00 AM72 °FScattered clouds.7 mph61%30.21 "HgN/A
9:30 AM70 °FScattered clouds.9 mph64%30.21 "HgN/A
9:00 AM68 °FScattered clouds.9 mph69%30.21 "HgN/A
8:30 AM66 °FScattered clouds.10 mph73%30.18 "HgN/A
8:00 AM66 °FPassing clouds.6 mph73%30.18 "HgN/A
7:30 AM66 °FPassing clouds.8 mph73%30.18 "HgN/A
7:00 AM64 °FPassing clouds.10 mph83%30.18 "HgN/A
6:30 AM64 °FPassing clouds.10 mph83%30.18 "HgN/A
6:00 AM64 °FPassing clouds.9 mph83%30.18 "HgN/A
5:30 AM66 °FPassing clouds.9 mph78%30.18 "HgN/A
5:00 AM66 °FPassing clouds.8 mph78%30.18 "HgN/A
4:30 AM66 °FPassing clouds.10 mph78%30.18 "HgN/A
4:00 AM66 °FPassing clouds.12 mph83%30.18 "HgN/A
3:30 AM66 °FPassing clouds.9 mph83%30.18 "HgN/A
3:00 AM66 °FPassing clouds.9 mph83%30.18 "HgN/A
2:30 AM66 °FPassing clouds.8 mph83%30.21 "HgN/A
2:00 AM68 °FPassing clouds.8 mph78%30.21 "HgN/A
1:30 AM66 °FPartly cloudy.8 mph83%30.21 "HgN/A
1:00 AM68 °FPassing clouds.6 mph83%30.21 "HgN/A
12:30 AM68 °FPartly cloudy.3 mph83%30.18 "HgN/A
12:00 AM68 °FPassing clouds.6 mph83%30.18 "HgN/A
11:30 PM
Oct 1
70 °FClear.5 mph78%30.18 "Hg10 mi
11:00 PM70 °FClear.5 mph78%30.18 "Hg10 mi
10:30 PM70 °FClear.2 mph78%30.18 "Hg10 mi
10:00 PM70 °FPassing clouds.3 mph78%30.18 "HgN/A
9:30 PM70 °FPassing clouds.2 mph78%30.18 "HgN/A
9:00 PM70 °FPassing clouds.5 mph78%30.18 "HgN/A
8:30 PM70 °FPassing clouds.5 mph78%30.18 "HgN/A
8:00 PM72 °FScattered clouds.3 mph73%30.18 "HgN/A
7:30 PM72 °FScattered clouds.3 mph78%30.18 "HgN/A
7:00 PM72 °FScattered clouds.3 mph73%30.18 "HgN/A
6:30 PM72 °FScattered clouds.3 mph73%30.18 "HgN/A
6:00 PM73 °FScattered clouds.3 mph69%30.15 "HgN/A
5:30 PM73 °FPartly sunny.6 mph69%30.18 "HgN/A
5:00 PM73 °FPartly sunny.6 mph74%30.15 "HgN/A
4:30 PM73 °FPartly sunny.6 mph69%30.15 "HgN/A
4:00 PM73 °FScattered clouds.6 mph69%30.15 "HgN/A
3:30 PM73 °FScattered clouds.6 mph69%30.18 "HgN/A
3:00 PM73 °FScattered clouds.8 mph69%30.18 "HgN/A
2:36 PM73 °FPassing clouds.7 mph69%30.18 "HgN/A
2:00 PM73 °FPassing clouds.7 mph74%30.18 "HgN/A
1:30 PM73 °FPassing clouds.7 mph74%30.21 "HgN/A
1:00 PM73 °FPassing clouds.7 mph74%30.21 "HgN/A
12:30 PM73 °FPassing clouds.6 mph74%30.21 "HgN/A
12:00 PM73 °FPassing clouds.6 mph69%30.21 "HgN/A
11:30 AM73 °FPassing clouds.5 mph65%30.21 "HgN/A
11:00 AM72 °FScattered clouds.3 mph69%30.21 "HgN/A
Weather by CustomWeather, © 2014

See weather overviewHow to use our weather pages